Regional Weather Roundup
Issued by NWS

Home | Current Version | Previous Version | Text Only | Print | Product List | Glossary On
Versions: 1 2 3 4 5 6 7 8 9 10 11 12 13 14 15 16 17 18 19 20 21 22 23 24 25 26 27 28 29 30 31 32 33 34 35 36 37 38 39 40 41 42 43 44 45 46 47 48 49 50
000
ASUS45 KTFX 231919
RWRMT
MONTANA HOURLY WEATHER ROUNDUP
NATIONAL WEATHER SERVICE GREAT FALLS MT
119 PM MDT SAT AUG 23 2014

NOTE: "FAIR" INDICATES FEW OR NO CLOUDS BELOW 12000 FEET WITH NO
SIGNIFICANT WEATHER AND/OR OBSTRUCTIONS TO VISIBILITY.

* THESE STATIONS ARE NOT UNDER NWS QUALITY CONTROL. THEY DO NOT
   REPORT WEATHER SUCH AS PRECIPITATION OR FOG.

MTZ001>007-043-232000-
WEST OF THE DIVIDE
CITY           SKY/WX    TMP DP  RH WIND       PRES   REMARKS
KALISPELL      CLOUDY    63  43  48 N13       30.18F
MISSOULA       LGT RAIN  55  46  72 NW7       30.20R
BUTTE          LGT RAIN  45  39  80 NW10      30.18S
MULLAN PASS    CLOUDY    54  41  62 CALM      30.23R
* ESSEX        N/A       53  43  69 SE6        N/A
* LINCOLN      N/A       48  45  89 E3         N/A
* LOOKOUT PASS N/A       55  40  57 N9G16      N/A
* POLSON       N/A       61  44  54 NW3G8      N/A
* RONAN APT    CLOUDY    61  45  56 N10G18     N/A
* SEELEY LAKE  N/A       49  46  89 S2         N/A
* THOMP F APT  PTSUNNY   66  43  43 NE9        N/A
$$

MTZ008-052>055-232000-
SOUTHWEST MONTANA
CITY           SKY/WX    TMP DP  RH WIND       PRES   REMARKS
BOZEMAN        LGT RAIN  48  46  93 W14       30.10R
DILLON         LGT RAIN  48  43  83 N9        30.13R
W YELLOWSTONE  CLOUDY    50  41  71 SW13      30.07R
* THREE FORKS  CLOUDY    50  30  46 N/A        N/A
* BOULDER HILL N/A       41  38  89 N16G29     N/A
* MONIDA PASS  N/A       43  43 100 W16G21     N/A
* RAYNOLDS PAS N/A       45  44  96 VRB20G26    N/A
* WHITEHALL    N/A       49  45  86 N8G17      N/A
* WISE RIVER   N/A       44  41  89 W3         N/A
$$

MTZ009>010-012-014-046-048-049-054-232000-
EAST SLOPES AND CENTRAL MONTANA
CITY           SKY/WX    TMP DP  RH WIND       PRES   REMARKS
CUT BANK       CLOUDY    46  45  96 N20G29    30.25R
GREAT FALLS    RAIN      48  48 100 N21G28    30.15R VSB 3
HELENA         LGT RAIN  48  45  89 NW14      30.16R
MALMSTROM AFB  RAIN      50  50 100 N18G26    30.13R
* CONRAD       CLOUDY    48  48 100 NW10G18    N/A
* DEARBORN     N/A       50  45  83 VRB8G17    N/A
* EAST GLACIER N/A       44  42  93 NE12G20    N/A
* MONARCH      N/A       45  42  89 N20G30     N/A
* PENDROY      N/A       44  44 100 VRB16G24    N/A
* ROGERS PASS  N/A       41  40  96 S5G14      N/A
* SAINT MARY   N/A       45  43  93 NE7G12     N/A
* SWEET GRASS  N/A       46  46 100 N17G24     N/A
* WHITE SULPH  N/A       48  47  96 NW15G23    N/A
$$

MTZ011-013-016-021-035-040-045-047-050-051-232000-
NORTH CENTRAL MONTANA
CITY           SKY/WX    TMP DP  RH WIND       PRES   REMARKS
HAVRE          RAIN      54  52  93 NE13      30.13S
LEWISTOWN      RAIN      50  48  93 N18G30    30.03R VSB 3
* FORT BENTON  CLOUDY    54  52  93 N12G18    30.14S
* CHESTER      N/A       52  49  90 N12G20     N/A
* DENTON       N/A       51  50  96 N15G26     N/A
* GEYSER       N/A       50  48  93 N16        N/A
* JUDITH GAP   N/A       48  48 100 N30G40     N/A
* LOMA         N/A       53  51  93 VRB22G27    N/A
$$

MTZ017>020-022>027-061-062-232000-
NORTHEAST MONTANA
CITY           SKY/WX    TMP DP  RH WIND       PRES   REMARKS
GLASGOW        RAIN      54  52  93 NE24G32   29.98F
GLENDIVE       CLOUDY    55  55 100 NE15G24   29.92F
JORDAN         CLOUDY    55  54  96 E28G37    29.90F
SIDNEY         CLOUDY    57  55  93 NE14G20   29.97F
WOLF POINT     LGT RAIN  55  52  90 NE22G32   29.99F
* BEAVER HILL  N/A       57  55  93 NE24G30    N/A
* CIRCLE       N/A       55  54  96 NE15G24    N/A
* LINDSAY DVD  N/A       54  54 100 NE22G30    N/A
* SACO         N/A       55  52  90 NE22G29    N/A
$$

MTZ028>042-056>058-232000-
SOUTHCENTRAL AND SOUTHEAST MONTANA
CITY           SKY/WX    TMP DP  RH WIND       PRES   REMARKS
BAKER          CLOUDY    61  57  87 E20G30    29.87F
BILLINGS       LGT RAIN  57  54  90 NW16      29.87R
LIVINGSTON     RAIN      52  46  80 W14       30.04S VSB 2
MILES CITY     RAIN      61  59  93 NE20G26   29.82F VSB 2
* LAUREL APT   CLOUDY    57  54  90 W16G22     N/A
* ROUNDUP APT  CLOUDY    54  50  86 NW22G28    N/A
* ALZADA       N/A       65  62  90 E10        N/A
* HYSHAM       N/A       59  56  90 W8G15      N/A
* LAME DEER    N/A      N/A N/A N/A N/A        N/A
* REED POINT   N/A       54  50  86 W14        N/A
* ROSCOE HILL  N/A       54  41  62 W6G19      N/A
$$

REGIONAL REPORTS...DAKOTAS
CITY           SKY/WX    TMP DP  RH WIND       PRES   REMARKS
WILLISTON      RAIN      55  54  96 NE15G22   30.01F
DICKINSON      RAIN      57  55  93 NE20      29.89F VSB 2 1/2
BEACH          LGT RAIN  57  57 100 E21G28    29.90F
CROSBY         FOG       54  54 100 NE13G20   30.07F
TIOGA          LGT RAIN  54  54 100 NE20      30.05F
WATFORD CITY   LGT RAIN  55  55 100 NE21      29.95F
BISMARCK       RAIN      63  61  93 NE16      29.90F VSB 3
GRAND FORKS    CLOUDY    73  68  84 NE5       29.96F
FARGO          LGT RAIN  73  68  84 E10       29.94F
BUFFALO SD     PTSUNNY   61  61 100 E20       29.78F
RAPID CITY     PTSUNNY   73  63  71 VRB5      29.81F
$$

REGIONAL REPORTS...WYOMING/IDAHO/WASHINGTON
CITY           SKY/WX    TMP DP  RH WIND       PRES   REMARKS
GILLETTE       PTCLDY    73  55  53 SW20      29.80F
SHERIDAN       CLOUDY    61  55  81 N12       29.84F
CODY           CLOUDY    59  54  84 N14       29.93S
YELLOWSTONE LA CLOUDY    45  41  86 VRB3      30.11S
SALMON         CLOUDY    57  45  64 N15G20    30.09S
MULLAN PASS    CLOUDY    54  41  62 CALM      30.23S
SAND POINT     SUNNY     70  43  38 N8        30.14F
SPOKANE        SUNNY     70  41  35 NE9G17    30.14F
$$

REGIONAL REPORTS...ALBERTA
CITY           SKY/WX    TMP DP  RH WIND       PRES   REMARKS
CALGARY        PTSUNNY   54  37  53 NE3       30.31F
LETHBRIDGE     FOG       48  48 100 NW16      30.29S VSB 2 1/2
MEDICINE HAT   CLOUDY    57  50  78 NE10      30.22F
EDMONTON       SUNNY     61  37  41 E5        30.31F
WATERTON GATE  N/A       46  41  83 NW5        N/A
CARDSTON       N/A       45  45 100 NW7        N/A
MILK RIVER     N/A       46  46 100 N16        N/A
$$

REGIONAL REPORTS...SASKATCHEWAN
CITY           SKY/WX    TMP DP  RH WIND       PRES   REMARKS
SWIFT CURRENT  LGT RAIN  54  46  74 NE15G22   30.20F
REGINA         CLOUDY    57  50  78 NE13G20   30.18F
VAL MARIE      N/A       52  50  93 NE20G28    N/A
ASSINIBOIA     N/A       54  50  86 NE16       N/A
CORONACH       N/A       54  50  86 NE15G22    N/A

$$



USA.gov is the U.S. government's official web portal to all federal, state and local government web resources and services.